[[{"header":{"parameterUnit":"m.s-1","parameterCategory":2,"la1":30.2992,"la2":30.254,"lo1":-89.0895,"lo2":-89.0443,"dy":0.0025,"dx":0.0025,"nx":19,"ny":19,"refTime":"2026-05-24T03:00:00:Z","depth":"0","parameterNumber":2,"parameterNumberName":"U-component_of_CURRENTS"},"data":[0,0,0,0.0595,0.0595,0.0593,0.0593,0.0618,0.0618,0,0,0,0,0,0,0,0,0,0,0,0.0588,0.0588,0.0595,0.0595,0.0593,0.0593,0.0618,0.0618,0,0,0,0,0,0,0,0,0,0,0,0.0588,0.0588,0.0588,0.0595,0.0593,0.0593,0.0618,0.0612,0,0,0,0,0,0,0,0,0,0,0.061,0.0593,0.0588,0.0588,0.0595,0.0593,0.0593,0.0611,0.0612,0.0628,0,0.0624,0,0.0628,0.0621,0.0621,0,0,0,0.0591,0.0592,0.0602,0.0588,0.0595,0.0593,0.0593,0.0611,0.0612,0.063,0.0624,0.0625,0.0628,0.0621,0.0621,0.0657,0.0657,0,0,0.0591,0.058,0.0601,0.0602,0.059,0.0593,0.0593,0.0612,0.0606,0.0624,0.0626,0.0629,0.0621,0.0622,0.0657,0.0657,0,0,0,0.0595,0.058,0.0588,0.0601,0.0602,0.0593,0.0593,0.0605,0.061,0.0626,0.0629,0.0622,0.0622,0.0657,0.0657,0.0659,0,0,0,0.0594,0.0583,0.0588,0.058,0.0601,0.0598,0.0585,0.0608,0.0611,0.0629,0.0622,0.0622,0.0657,0.0657,0.0659,0.0669,0,0,0,0.0589,0.0582,0.0582,0.058,0.0583,0.0598,0.0603,0.0608,0.0613,0.0621,0.0623,0.0656,0.0657,0.0658,0.0668,0.0714,0,0,0,0.0578,0.0559,0.0582,0.0566,0.0583,0.0583,0.0603,0.06,0.0603,0.0622,0.0657,0.0657,0.0658,0.0668,0.0712,0.0787,0.0798,0,0,0.0547,0.0555,0.0547,0.0568,0.0562,0.0583,0.0588,0.0601,0.0616,0.0652,0.0652,0.0659,0.0668,0.0713,0.0798,0.0809,0,0,0,0.0534,0.0525,0.0526,0.0531,0.0547,0.0575,0.0587,0.0606,0.0636,0.062,0.0662,0.0668,0.0697,0.0739,0.0748,0.0878,0.0658,0.0658,0.0658,0.0445,0.048,0.047,0.0509,0.0525,0.0568,0.0594,0.0628,0.0632,0.065,0.0672,0.0711,0.0755,0.0763,0.0895,0.067,0.067,0.067,0.067,0.0395,0.0393,0.0447,0.0456,0.0513,0.0536,0.0614,0.0635,0.0697,0.0683,0.0711,0.0742,0.0773,0.091,0.067,0.067,0.067,0.067,0.067,0.033,0.0341,0.036,0.0406,0.0457,0.0529,0.0606,0.066,0.0707,0.0734,0.0807,0.0808,0.093,0.0755,0.0755,0.0755,0.0756,0.0756,0.0756,0.0261,0.0287,0.03,0.0359,0.0402,0.0483,0.0608,0.0682,0.0796,0.0829,0.083,0.0969,0.0738,0.0736,0.076,0.0759,0.0758,0.0758,0.0758,0.0203,0.0216,0.0237,0.0274,0.0385,0.0495,0.0602,0.0793,0.0873,0.0944,0.1113,0.0892,0.0908,0.0902,0.0905,0.097,0.097,0.097,0.097,0.0158,0.0168,0.0195,0.0254,0.0355,0.0501,0.0689,0.0867,0.1116,0.1258,0.1273,0.1279,0.1264,0.1301,0.1286,0.1296,0.146,0.146,0.1461,0.0136,0.0149,0.0157,0.0219,0.035,0.0527,0.0728,0.096,0.1343,0.1491,0.1443,0.1422,0.1436,0.1403,0.146,0.1428,0.1443,0,0]},{"header":{"parameterUnit":"m.s-1","parameterCategory":2,"la1":30.2992,"la2":30.254,"lo1":-89.0895,"lo2":-89.0443,"dy":0.0025,"dx":0.0025,"nx":19,"ny":19,"refTime":"2026-05-24T03:00:00:Z","depth":"0","parameterNumber":3,"parameterNumberName":"V-component_of_CURRENTS"},"data":[0,0,0,-0.0464,-0.0464,-0.0501,-0.0501,-0.0574,-0.0575,0,0,0,0,0,0,0,0,0,0,0,-0.0445,-0.0445,-0.0464,-0.0465,-0.0501,-0.0501,-0.0574,-0.0575,0,0,0,0,0,0,0,0,0,0,0,-0.0445,-0.0445,-0.0445,-0.0465,-0.0501,-0.0501,-0.0574,-0.0539,0,0,0,0,0,0,0,0,0,0,-0.05,-0.0479,-0.0445,-0.0445,-0.0465,-0.0501,-0.0501,-0.0537,-0.0541,-0.0566,0,-0.0569,0,-0.0579,-0.0581,-0.0581,0,0,0,-0.0462,-0.0475,-0.0489,-0.0446,-0.0465,-0.0501,-0.0484,-0.0539,-0.0544,-0.0572,-0.057,-0.0573,-0.058,-0.0581,-0.0582,-0.0641,-0.0641,0,0,-0.046,-0.0451,-0.0485,-0.0491,-0.0473,-0.0483,-0.0485,-0.0542,-0.0545,-0.0571,-0.0575,-0.0581,-0.0582,-0.0582,-0.0641,-0.0641,0,0,0,-0.0456,-0.0449,-0.046,-0.0488,-0.0496,-0.0484,-0.0486,-0.0542,-0.0547,-0.0576,-0.0582,-0.0582,-0.0583,-0.0641,-0.0641,-0.0601,0,0,0,-0.0455,-0.0447,-0.0459,-0.0454,-0.0494,-0.0516,-0.0485,-0.0542,-0.0549,-0.0582,-0.0582,-0.0584,-0.0641,-0.0641,-0.0602,-0.058,0,0,0,-0.0444,-0.0446,-0.045,-0.0454,-0.0472,-0.0515,-0.0522,-0.0544,-0.0554,-0.0581,-0.0584,-0.0641,-0.0641,-0.0603,-0.0582,-0.0591,0,0,0,-0.0434,-0.0424,-0.045,-0.0442,-0.0471,-0.0484,-0.0522,-0.0533,-0.0551,-0.0583,-0.0641,-0.0641,-0.0603,-0.0583,-0.0591,-0.0561,-0.0555,0,0,-0.0411,-0.0421,-0.0415,-0.0439,-0.0439,-0.0479,-0.0487,-0.0525,-0.0563,-0.0624,-0.0625,-0.0602,-0.0582,-0.0591,-0.0562,-0.0555,0,0,0,-0.0401,-0.0393,-0.04,-0.0407,-0.0432,-0.0459,-0.0498,-0.0525,-0.0571,-0.0576,-0.0613,-0.0602,-0.0609,-0.0593,-0.0588,-0.0559,-0.0641,-0.0641,-0.0641,-0.0351,-0.0364,-0.035,-0.0372,-0.0391,-0.0442,-0.0468,-0.0516,-0.0553,-0.0569,-0.0578,-0.0568,-0.055,-0.0546,-0.0516,-0.0591,-0.0591,-0.0591,-0.0591,-0.0306,-0.029,-0.0312,-0.0303,-0.0346,-0.0362,-0.0444,-0.0477,-0.0535,-0.0559,-0.0569,-0.0562,-0.0538,-0.0508,-0.0589,-0.0589,-0.0589,-0.059,-0.059,-0.0268,-0.0257,-0.0258,-0.0251,-0.0259,-0.0315,-0.0334,-0.041,-0.0492,-0.0504,-0.0515,-0.0515,-0.0483,-0.0517,-0.0517,-0.0517,-0.0517,-0.0517,-0.0517,-0.0225,-0.0223,-0.0195,-0.0195,-0.0186,-0.0203,-0.0279,-0.0323,-0.0414,-0.0469,-0.047,-0.0472,-0.0546,-0.0542,-0.0516,-0.0516,-0.0516,-0.0516,-0.0516,-0.0157,-0.0164,-0.0131,-0.0114,-0.0095,-0.0075,-0.0158,-0.0241,-0.0321,-0.0359,-0.0402,-0.0464,-0.0478,-0.0483,-0.0478,-0.0437,-0.0437,-0.0437,-0.0436,-0.0105,-0.0108,-0.0059,-0.0025,-0.0004,-0.0014,0.0004,-0.0072,-0.0233,-0.0295,-0.0353,-0.0349,-0.0353,-0.0362,-0.0369,-0.0362,-0.0292,-0.0292,-0.0292,-0.0046,-0.0054,-0.0001,0.0018,0.0048,0.0059,0.0125,0.0163,-0.0094,-0.0285,-0.0316,-0.0322,-0.0317,-0.0327,-0.0342,-0.0354,-0.0346,0,0]}],[{"header":{"parameterUnit":"m.s-1","parameterCategory":2,"la1":30.2992,"la2":30.254,"lo1":-89.0895,"lo2":-89.0443,"dy":0.0025,"dx":0.0025,"nx":19,"ny":19,"refTime":"2026-05-24T03:00:00:Z","depth":"2","parameterNumber":2,"parameterNumberName":"U-component_of_CURRENTS"},"data":[0,0,0,0.1931,0.193,0.1922,0.1922,0.198,0.1981,0,0,0,0,0,0,0,0,0,0,0,0.1938,0.1938,0.1931,0.193,0.1922,0.1922,0.198,0.1981,0,0,0,0,0,0,0,0,0,0,0,0.1938,0.1938,0.1938,0.193,0.1922,0.1922,0.198,0.1969,0,0,0,0,0,0,0,0,0,0,0.1969,0.1958,0.1938,0.1938,0.193,0.1922,0.1922,0.1968,0.197,0.2003,0,0.2003,0,0.1992,0.1986,0.1986,0,0,0,0.1932,0.1956,0.1961,0.1938,0.193,0.1922,0.1926,0.1969,0.1971,0.2006,0.2003,0.2005,0.1993,0.1987,0.1987,0.2104,0.2104,0,0,0.1932,0.1931,0.1959,0.1962,0.1931,0.1927,0.1926,0.1969,0.1971,0.2003,0.2006,0.1994,0.1987,0.1988,0.2103,0.2104,0,0,0,0.1933,0.1932,0.1934,0.1961,0.1953,0.1926,0.1926,0.1968,0.1971,0.2006,0.1995,0.1988,0.1989,0.2102,0.2103,0.2129,0,0,0,0.1933,0.1932,0.1935,0.1933,0.1952,0.1949,0.1924,0.1968,0.1972,0.1995,0.1988,0.1989,0.2102,0.2103,0.2126,0.2117,0,0,0,0.1938,0.1932,0.1933,0.1933,0.1929,0.1948,0.1952,0.1969,0.1966,0.1986,0.1989,0.2101,0.2103,0.2124,0.2115,0.2148,0,0,0,0.1934,0.1927,0.1933,0.1928,0.1929,0.1943,0.1952,0.1954,0.1968,0.1988,0.2102,0.2103,0.2124,0.2113,0.2146,0.2032,0.2031,0,0,0.1922,0.1926,0.1925,0.193,0.1934,0.1944,0.1981,0.1995,0.2012,0.2091,0.2093,0.2127,0.2114,0.2148,0.2127,0.2123,0,0,0,0.1918,0.1914,0.192,0.1922,0.194,0.1978,0.1993,0.2033,0.2098,0.2029,0.2154,0.2145,0.2165,0.2093,0.2091,0.2111,0.2111,0.2111,0.2111,0.1881,0.1896,0.1898,0.1924,0.1946,0.2003,0.2052,0.2117,0.2128,0.2174,0.2186,0.2253,0.2179,0.2175,0.222,0.222,0.2221,0.2221,0.2221,0.1858,0.1853,0.1889,0.1891,0.1949,0.1986,0.2113,0.2149,0.226,0.2252,0.2271,0.2148,0.2174,0.2223,0.2223,0.2222,0.2222,0.2222,0.2222,0.1823,0.1824,0.183,0.1847,0.189,0.1967,0.2052,0.2158,0.2255,0.2298,0.2222,0.222,0.2248,0.231,0.231,0.231,0.2311,0.2311,0.2311,0.1778,0.1791,0.1777,0.1801,0.181,0.1867,0.2015,0.2093,0.2184,0.2232,0.2231,0.2283,0.228,0.2255,0.2313,0.2312,0.2312,0.2312,0.2312,0.1723,0.1728,0.1709,0.1707,0.1736,0.1758,0.1898,0.2001,0.2102,0.2124,0.2204,0.2206,0.2184,0.2184,0.2156,0.2186,0.2186,0.2186,0.2186,0.1681,0.1685,0.1647,0.1635,0.1657,0.1711,0.17,0.1687,0.1829,0.1794,0.181,0.174,0.1755,0.1704,0.1716,0.1677,0.1581,0.158,0.1578,0.1647,0.1644,0.1596,0.1586,0.1609,0.1643,0.1537,0.1279,0.1223,0.1547,0.1627,0.216,0.2101,0.2107,0.2065,0.2069,0.2021,0,0]},{"header":{"parameterUnit":"m.s-1","parameterCategory":2,"la1":30.2992,"la2":30.254,"lo1":-89.0895,"lo2":-89.0443,"dy":0.0025,"dx":0.0025,"nx":19,"ny":19,"refTime":"2026-05-24T03:00:00:Z","depth":"2","parameterNumber":3,"parameterNumberName":"V-component_of_CURRENTS"},"data":[0,0,0,0.0296,0.0295,0.0274,0.0274,0.0225,0.0225,0,0,0,0,0,0,0,0,0,0,0,0.0308,0.0308,0.0296,0.0295,0.0274,0.0274,0.0225,0.0225,0,0,0,0,0,0,0,0,0,0,0,0.0307,0.0308,0.0308,0.0295,0.0274,0.0274,0.0226,0.0246,0,0,0,0,0,0,0,0,0,0,0.0269,0.0278,0.0308,0.0308,0.0295,0.0274,0.0274,0.0247,0.0245,0.023,0,0.0233,0,0.0226,0.0221,0.0221,0,0,0,0.0292,0.028,0.028,0.0308,0.0295,0.0274,0.0283,0.0246,0.0243,0.0227,0.0232,0.023,0.0226,0.0221,0.0221,0.024,0.0241,0,0,0.0293,0.0295,0.0283,0.0279,0.0296,0.0283,0.0282,0.0245,0.0241,0.0232,0.0229,0.0225,0.0221,0.022,0.024,0.024,0,0,0,0.0299,0.0296,0.0297,0.0281,0.0278,0.0283,0.0281,0.0242,0.0245,0.0229,0.0224,0.022,0.022,0.0239,0.024,0.033,0,0,0,0.0299,0.0299,0.0298,0.0297,0.0279,0.0261,0.028,0.0247,0.0243,0.0224,0.022,0.0219,0.0238,0.0239,0.0326,0.0383,0,0,0,0.0307,0.03,0.0301,0.0298,0.029,0.0262,0.0261,0.0246,0.024,0.0221,0.0219,0.0238,0.0239,0.0323,0.0377,0.041,0,0,0,0.0304,0.0324,0.0301,0.0326,0.0291,0.0312,0.0262,0.0256,0.0245,0.022,0.0238,0.024,0.0322,0.0373,0.0406,0.0455,0.0477,0,0,0.0332,0.0327,0.0346,0.0326,0.037,0.0314,0.0361,0.0313,0.0262,0.0247,0.0247,0.0328,0.0376,0.0409,0.0537,0.0556,0,0,0,0.0358,0.037,0.0382,0.0397,0.0401,0.0422,0.037,0.0356,0.0339,0.0262,0.0331,0.0359,0.0377,0.0398,0.0414,0.0246,0.0246,0.0246,0.0246,0.0383,0.0402,0.0444,0.0468,0.0484,0.0487,0.0506,0.0476,0.0404,0.0412,0.0435,0.0528,0.0553,0.0565,0.0427,0.0427,0.0428,0.0428,0.0428,0.0434,0.0463,0.0493,0.0536,0.0567,0.0595,0.0619,0.059,0.0605,0.0529,0.054,0.0496,0.0587,0.0435,0.0434,0.0433,0.0432,0.0432,0.0431,0.0448,0.047,0.0491,0.0557,0.0624,0.0657,0.0744,0.0735,0.0688,0.0719,0.0692,0.0691,0.058,0.0697,0.0698,0.0698,0.0699,0.0699,0.0699,0.045,0.0482,0.0518,0.0585,0.0635,0.0719,0.0802,0.0842,0.085,0.0811,0.081,0.0618,0.061,0.0595,0.0706,0.0705,0.0704,0.0703,0.0703,0.0478,0.0477,0.0535,0.0581,0.0707,0.0822,0.0901,0.0996,0.1006,0.102,0.0858,0.0852,0.0825,0.0812,0.0801,0.0959,0.0959,0.0959,0.0959,0.0484,0.0493,0.0558,0.0636,0.0757,0.0873,0.1023,0.1033,0.0992,0.0869,0.0872,0.0809,0.0803,0.0768,0.0756,0.0741,0.0883,0.0883,0.0882,0.0505,0.052,0.0564,0.0634,0.0776,0.0936,0.1061,0.0973,0.0738,0.0868,0.0747,0.0976,0.089,0.0877,0.0824,0.0805,0.0781,0,0]}],[{"header":{"parameterUnit":"m.s-1","parameterCategory":2,"la1":30.2992,"la2":30.254,"lo1":-89.0895,"lo2":-89.0443,"dy":0.0025,"dx":0.0025,"nx":19,"ny":19,"refTime":"2026-05-24T03:00:00:Z","depth":"4","parameterNumber":2,"parameterNumberName":"U-component_of_CURRENTS"},"data":[0,0,0,0.0491,0.0496,0.0753,0.0755,0.0818,0.0817,0,0,0,0,0,0,0,0,0,0,0,0.0423,0.0424,0.0491,0.0496,0.0753,0.0755,0.0818,0.0817,0,0,0,0,0,0,0,0,0,0,0,0.0422,0.0424,0.0426,0.0497,0.0753,0.0755,0.0818,0.0698,0,0,0,0,0,0,0,0,0,0,0.0484,0.0473,0.0424,0.0426,0.0498,0.0753,0.0755,0.0695,0.0705,0.0616,0,0.0664,0,0.0712,0.0813,0.0813,0,0,0,0.0527,0.0466,0.0499,0.0426,0.05,0.0752,0.0646,0.0703,0.0714,0.0627,0.0665,0.0669,0.0713,0.0812,0.0812,0.077,0.077,0,0,0.0513,0.0498,0.0493,0.0506,0.057,0.0638,0.0654,0.0713,0.0739,0.0666,0.0672,0.0714,0.0812,0.0811,0.077,0.077,0,0,0,0.0451,0.0488,0.0528,0.0502,0.0554,0.0644,0.0663,0.0739,0.0742,0.0673,0.0715,0.0811,0.0811,0.077,0.077,0.0887,0,0,0,0.0444,0.0449,0.0521,0.0519,0.0554,0.069,0.0687,0.074,0.0748,0.0714,0.0811,0.081,0.077,0.077,0.0884,0.0908,0,0,0,0.041,0.0446,0.047,0.0516,0.0608,0.0691,0.0705,0.0746,0.0769,0.0813,0.081,0.077,0.077,0.0881,0.0904,0.0884,0,0,0,0.0392,0.046,0.0471,0.0551,0.0606,0.0704,0.0706,0.0814,0.0862,0.0811,0.077,0.077,0.088,0.0901,0.0882,0.0647,0,0,0,0.0459,0.0469,0.0508,0.0522,0.062,0.067,0.0766,0.0844,0.0819,0.0736,0.0739,0.0885,0.0903,0.0883,0.0658,0,0,0,0,0.0514,0.0551,0.0579,0.0645,0.0694,0.0772,0.0842,0.0843,0.0881,0.0842,0.0855,0.0861,0.0846,0.0701,0.0771,0.0771,0.0771,0.0771,0.0771,0.0599,0.0612,0.068,0.0714,0.0771,0.0851,0.0897,0.0899,0.0889,0.092,0.0937,0.097,0.0823,0.0924,0.0925,0.0925,0.0926,0.0926,0.0926,0.0659,0.0678,0.0725,0.081,0.0858,0.0942,0.0948,0.0981,0.0984,0.098,0.096,0.081,0.0937,0.0935,0.0934,0.0932,0.0931,0.0931,0.093,0.0665,0.0675,0.0761,0.0863,0.0961,0.102,0.1016,0.1072,0.1067,0.1088,0.0895,0.1011,0.1021,0.1097,0.1097,0.1098,0.1098,0.1098,0.1098,0.0626,0.0699,0.0804,0.091,0.0976,0.1033,0.1082,0.1007,0.1032,0.0963,0.1127,0.1025,0.102,0.1027,0.1099,0.1098,0.1098,0.1098,0.1098,0.0612,0.0704,0.0793,0.0881,0.095,0.0903,0.1003,0.0844,0.0783,0.0666,0.0853,0.0865,0.078,0.078,0.0775,0.0776,0.0773,0.077,0,0.0623,0.0662,0.0795,0.0839,0.0784,0.0798,0.0637,0.056,0.0559,0.0612,0.0696,0.0914,0.0921,0.0826,0.0821,0.0814,0,0,0,0.0644,0.0664,0.0734,0.0782,0.0683,0.0536,0.0559,0.049,0.0697,0.0421,0.07,0.0718,0.0734,0.1101,0.0997,0.099,0.0994,0,0]},{"header":{"parameterUnit":"m.s-1","parameterCategory":2,"la1":30.2992,"la2":30.254,"lo1":-89.0895,"lo2":-89.0443,"dy":0.0025,"dx":0.0025,"nx":19,"ny":19,"refTime":"2026-05-24T03:00:00:Z","depth":"4","parameterNumber":3,"parameterNumberName":"V-component_of_CURRENTS"},"data":[0,0,0,0.0237,0.0236,0.0214,0.0214,0.0129,0.0129,0,0,0,0,0,0,0,0,0,0,0,0.0248,0.0249,0.0237,0.0236,0.0214,0.0214,0.0129,0.0129,0,0,0,0,0,0,0,0,0,0,0,0.0248,0.0248,0.0249,0.0236,0.0214,0.0214,0.013,0.0158,0,0,0,0,0,0,0,0,0,0,0.0186,0.0209,0.0248,0.0249,0.0236,0.0214,0.0214,0.016,0.0156,0.0126,0,0.0134,0,0.013,0.0122,0.0122,0,0,0,0.0227,0.0213,0.0206,0.0249,0.0236,0.0214,0.0221,0.0158,0.0154,0.0121,0.0133,0.013,0.0129,0.0122,0.0121,0.0011,0.001,0,0,0.0229,0.0239,0.021,0.0204,0.0243,0.0222,0.0221,0.0156,0.0156,0.0133,0.0128,0.0127,0.0121,0.0121,0.0011,0.0011,0,0,0,0.0238,0.024,0.0236,0.0207,0.0208,0.0222,0.022,0.0159,0.0158,0.0127,0.0126,0.0121,0.012,0.0012,0.0011,0.0044,0,0,0,0.0239,0.0246,0.0237,0.0242,0.021,0.0191,0.0224,0.0163,0.0156,0.0127,0.0121,0.0119,0.0013,0.0012,0.0045,0.0083,0,0,0,0.0247,0.0247,0.0249,0.0243,0.0237,0.0192,0.0188,0.0161,0.0155,0.0122,0.0118,0.0013,0.0012,0.0045,0.0082,0.0067,0,0,0,0.0251,0.0248,0.0249,0.0234,0.0237,0.0198,0.0188,0.0155,0.0127,0.012,0.0013,0.0011,0.0045,0.0082,0.0067,0.0044,0,0,0,0.0245,0.0248,0.0234,0.0234,0.0201,0.02,0.0154,0.012,0.0095,0.003,0.0027,0.0045,0.0082,0.0067,-0.0032,0,0,0,0,0.0228,0.0226,0.0213,0.0196,0.017,0.0152,0.0119,0.0097,0.0052,0.0075,0.0009,0.0032,0.0022,0.0005,0.0005,0.0005,0.0005,0.0006,0.0006,0.0235,0.0213,0.019,0.0165,0.0145,0.0108,0.0084,0.0045,0.0029,0.0009,0.0032,0.001,-0.001,-0.0013,-0.0013,-0.0013,-0.0013,-0.0012,-0.0012,0.0226,0.0211,0.0186,0.0174,0.0148,0.013,0.0066,0.0055,0.0017,0.0013,0.0,0.0008,-0.001,-0.001,-0.0011,-0.0011,-0.0011,-0.0011,-0.0012,0.0239,0.0227,0.0235,0.0219,0.0212,0.0185,0.0163,0.013,0.0066,0.0054,0.0022,0.0025,0.0053,0.0052,0.0052,0.0052,0.0052,0.0052,0.0052,0.0257,0.025,0.0275,0.0272,0.0283,0.0296,0.0252,0.0191,0.012,0.0064,0.0079,0.0032,0.003,0.0055,0.0053,0.0053,0.0053,0.0053,0.0053,0.0252,0.0289,0.0312,0.0334,0.0339,0.0317,0.0322,0.0187,0.0124,0.0024,0.004,0.0041,0.0028,0.0026,0.0051,0.0048,0.0048,0.0048,0,0.0269,0.0278,0.0332,0.0347,0.0324,0.0309,0.0233,0.0155,0.0041,0.0062,0.0053,0.0075,0.0074,0.0062,0.0059,0.009,0,0,0,0.0267,0.029,0.0326,0.0344,0.0295,0.0207,0.0198,0.0141,0.0135,-0.0006,0.0041,0.0042,-0.0001,0.0057,0.0038,0.0035,0.0075,0,0]}]]